Showing default

IRIDIUM 107, 42960

Orbit data source: Space-Track

IRIDIUM 107, 42960 is a payload satellite owned by Iridium (US) in LEO that was launched on Mon, 09 Oct 2017 UTC via an FALCON 9 launch vehicle from the Air Force Western Test Range (AFWTR). Payloads include a variety of satellites, spacecraft, and rockets equipped with specific instruments for various scientific and technological missions. These include communications satellites like Starlink; space stations such as the ISS; scientific satellites like the Hubble; Earth observation satellites from companies like Planet Labs, Umbra, and HawkEye 360; GPS; miniature CubeSats for education and research; and military/defense satellites.

Loading next visibility...
IRIDIUM 107 details
Identifier
42960, 2017-061F
Orbit
LEO
Last TLE update10 hours ago
Origin
Flag of USIridium (US)
ManufacturerOATK SSG Gilbert
MissionOperational Commercial Communications
Bus & MotorELITEBUS, Unknown motor
Mass860 kg wet, 700 kg dry
Launch date (UTC)
2017-10-09 (7 years ago)
Launch vehicle
FALCON 9
Launch site
Air Force Western Test Range (AFWTR)
Object type
Payload
Rocket body
Debris
Shape & HBRTrap Box + 2 Pan, 9.4 m
Radar Cross Section14.423 m², Large (>1 m²)

Expand to show TLE details & history

TLE from 10 hours ago
0 IRIDIUM 107
1 42960U 17061F   24361.43974785  .00000662  00000-0  22935-3 0  9997
2 42960  86.3964 249.9407 0001579  85.9883 274.1493 14.34217241377744
Epoch: 2024-12-26T10:33Z
Definitive object data (Epoch: 2024-12-26T10:33:14.214Z)
Latitude-0.00004°
Longitude-3.78765°
Altitude780.638 km
Speed7.464 km/s
True Right ascension16h 39m 45s
True Declination0° 00' 00"
Sunlit
Object was in daylight at TLE epoch
Visualization TLE readout
Latitude64.63248°
Longitude3.62418°
Altitude787.834 km
Speed7.466 km/s
Apparent Right ascension10h 52m 08s
Apparent Declination33° 34' 54"
Sunlit
Object is in daylight
Visualization observer readout
Local Sidereal Time20:16:59
Azimuth328.175° NNW
Elevation-8.229°
Doppler factor1
Orbital elements
Apogee altitude775.763 km
Perigee altitude773.504 km
Semi-major axis7,152.77 km
Eccentricity0.0001579
Inclination86.3964°
RAAN249.9407°
Arg. of periapsis85.9883°
True anomaly274.13125°
Mean anomaly274.1493°
Eccentric anomaly274.14028°
Mean motion3.58783 °/min
BSTAR0.00022935
Orbital period100.34 mins
Loading maneuver chart data...
Loading historical data...
Loading historical data...
Loading historical data...
Loading historical data...
Loading historical data...
Loading historical data...
Loading historical data...

IRIDIUM 107 Visibility forecast

Observer location: undefined°, undefined

Span
Click to sort rows by Start time (UTC) header in descending order
Start Az.
Max El. time (UTC)
Max El. Az.
Max El.
End time (UTC)
End Az.
7 mins2024-12-27 03:53:04.809Z32.168° NE2024-12-27 03:56:04.809Z70.736° E20.017°2024-12-27 04:00:04.809Z124.368° SE
8 mins2024-12-27 05:34:04.809Z333.957° NNW2024-12-27 05:37:04.809Z282.305° WNW32.971°2024-12-27 05:42:04.809Z205.856° SW
8 mins2024-12-27 16:49:04.809Z152.705° SSE2024-12-27 16:53:04.809Z76.758° E35.133°2024-12-27 16:57:04.809Z17.9° NNE
6 mins2024-12-27 18:31:04.809Z247.228° WSW2024-12-27 18:34:04.809Z288.724° WNW18.41°2024-12-27 18:37:04.809Z326.207° NNW
|